Weather History for KOCW - August, 2013

Change the Weather History Date:

Monday, August 26, 2013

  Actual Average (KEWN) Record (KEWN)
Temperature  
Mean Temperature 70 °F 78 °F  
Max Temperature 83 °F 87 °F 96 °F (1954)
Min Temperature 58 °F 70 °F 59 °F (1951)
Degree Days  
Heating Degree Days 0 0  
Month to date heating degree days 0  
Since 1 June heating degree days 1  
Since 1 July heating degree days 0  
Cooling Degree Days 6 13  
Month to date cooling degree days 374  
Year to date cooling degree days 1464  
Since 1 June cooling degree days 1221  
Growing Degree Days 20 (Base 50)    
Moisture  
Dew Point 53 °F    
Average Humidity 63    
Maximum Humidity 85    
Minimum Humidity 20    
Precipitation  
Precipitation 0.00 in 0.21 in 3.30 in (2011)
Month to date precipitation 5.67  
Year to date precipitation 35.82  
Snow  
Snow 0.00 in - - ()
Month to date snowfall  
Since 1 July snowfall  
Snow Depth -    
Sea Level Pressure  
Sea Level Pressure 30.23 in    
Wind  
Wind Speed 2 mph (North)    
Max Wind Speed 6 mph    
Max Gust Speed -    
Visibility 10 miles    
Events      
T = Trace of Precipitation, MM = Missing Value Source: NWS Daily Summary

Daily Weather History Graph

Daily Weather History Graph

Search for Another Location

Airport or City:

Trip Planner

Search our weather history database for the weather conditions in past years. The results will help you decide how hot, cold, wet, or windy it might be!

Date:

Astronomy

Aug. 26, 2013 Rise Set
Actual Time 6:35 AM EDT 7:43 PM EDT
Civil Twilight 6:09 AM EDT 8:09 PM EDT
Nautical Twilight 5:38 AM EDT 8:40 PM EDT
Astronomical Twilight 5:05 AM EDT 9:13 PM EDT
Moon 11:07 PM EDT (8/26) 12:21 PM EDT (8/26)
Length of Visible Light 13h 59m
Length of Day
13h 07m
Waning Gibbous, 67% of the Moon is Illuminated
Aug 26
Waning Gibbous
Aug 28
Last Quarter
Sep 5
New
Sep 12
First Quarter
Sep 19
Full

Hourly Weather History & Observations

Time (EDT) Temp. Dew Point Humidity Pressure Visibility Wind Dir Wind Speed Gust Speed Precip Events Conditions
12:15 AM 60.4 °F 55.8 °F 85% 30.32 in 10.0 mi Calm Calm - N/A   Clear
12:35 AM 60.4 °F 55.8 °F 85% 30.32 in 10.0 mi North 3.5 mph - N/A   Clear
12:55 AM 60.4 °F 55.8 °F 85% 30.33 in 10.0 mi Calm Calm - N/A   Clear
1:15 AM 60.4 °F 55.8 °F 85% 30.32 in 10.0 mi North 5.8 mph - N/A   Clear
1:35 AM 60.4 °F 55.8 °F 85% 30.32 in 10.0 mi Calm Calm - N/A   Clear
1:55 AM 60.4 °F 55.8 °F 85% 30.31 in 10.0 mi Calm Calm - N/A   Clear
2:15 AM 60.4 °F 55.8 °F 85% 30.31 in 10.0 mi Calm Calm - N/A   Clear
2:35 AM 58.5 °F 54.0 °F 85% 30.30 in 10.0 mi Calm Calm - N/A   Clear
2:55 AM 58.3 °F 53.8 °F 85% 30.30 in 10.0 mi Calm Calm - N/A   Clear
3:15 AM 58.1 °F 53.6 °F 85% 30.30 in 10.0 mi Calm Calm - N/A   Clear
3:35 AM 58.1 °F 53.6 °F 85% 30.29 in 10.0 mi Calm Calm - N/A   Clear
3:55 AM 58.1 °F 53.6 °F 85% 30.29 in 10.0 mi North 3.5 mph - N/A   Clear
4:15 AM 58.1 °F 53.6 °F 85% 30.29 in 10.0 mi North 3.5 mph - N/A   Clear
4:35 AM 58.1 °F 53.6 °F 85% 30.29 in 10.0 mi North 3.5 mph - N/A   Clear
4:55 AM 58.1 °F 53.6 °F 85% 30.28 in 10.0 mi North 5.8 mph - N/A   Clear
5:15 AM 58.1 °F 53.6 °F 85% 30.28 in 10.0 mi North 3.5 mph - N/A   Clear
5:35 AM 58.1 °F 53.6 °F 85% 30.28 in 10.0 mi North 4.6 mph - N/A   Clear
5:55 AM 58.1 °F 53.6 °F 85% 30.28 in 10.0 mi North 4.6 mph - N/A   Clear
6:15 AM 58.1 °F 53.6 °F 85% 30.27 in 10.0 mi Calm Calm - N/A   Clear
6:35 AM 58.1 °F 53.6 °F 85% 30.28 in 10.0 mi Calm Calm - N/A   Clear
6:55 AM 58.1 °F 53.6 °F 85% 30.28 in 10.0 mi Calm Calm - N/A   Clear
7:15 AM 58.1 °F 53.6 °F 85% 30.28 in 10.0 mi Calm Calm - N/A   Clear
7:35 AM 58.1 °F 53.6 °F 85% 30.28 in 10.0 mi Calm Calm - N/A   Clear
7:55 AM 58.6 °F 54.1 °F 85% 30.28 in 10.0 mi Calm Calm - N/A   Clear
8:15 AM 63.0 °F 58.3 °F 85% 30.28 in 10.0 mi NNE 5.8 mph - N/A   Clear
8:35 AM 64.4 °F 59.0 °F 83% 30.27 in 10.0 mi Calm Calm - N/A   Clear
8:55 AM 66.6 °F 61.0 °F 82% 30.29 in 10.0 mi NNE 4.6 mph - N/A   Clear
9:15 AM 68.2 °F 61.9 °F 80% 30.29 in 10.0 mi NE 5.8 mph - N/A   Clear
9:35 AM 70.9 °F 64.4 °F 80% 30.30 in 10.0 mi North 4.6 mph - N/A   Clear
9:55 AM 73.0 °F 65.7 °F 78% 30.29 in 10.0 mi NE 4.6 mph - N/A   Clear
10:15 AM 73.0 °F 62.8 °F 70% 30.30 in 10.0 mi NNE 4.6 mph - N/A   Clear
10:35 AM 73.0 °F 60.6 °F 65% 30.29 in 10.0 mi NNE 5.8 mph - N/A   Clear
10:55 AM 73.0 °F 60.4 °F 65% 30.29 in 10.0 mi Calm Calm - N/A   Clear
11:15 AM 73.8 °F 59.5 °F 61% 30.29 in 10.0 mi North 4.6 mph - N/A   Clear
11:35 AM 75.2 °F 56.7 °F 52% 30.28 in 10.0 mi Calm Calm - N/A   Clear
11:55 AM 78.1 °F 57.2 °F 49% 30.27 in 10.0 mi East 4.6 mph - N/A   Clear
12:15 PM 78.1 °F 57.9 °F 50% 30.27 in 10.0 mi NNW 3.5 mph - N/A   Clear
12:35 PM 78.1 °F 53.4 °F 42% 30.27 in 10.0 mi NE 4.6 mph - N/A   Clear
12:55 PM 78.1 °F 36.1 °F 22% 30.26 in 10.0 mi North 3.5 mph - N/A   Clear
1:15 PM 78.3 °F 34.7 °F 21% 30.25 in 10.0 mi Calm Calm - N/A   Clear
1:35 PM 79.0 °F 43.3 °F 28% 30.24 in 10.0 mi North 3.5 mph - N/A   Clear
1:55 PM 80.1 °F 44.4 °F 28% 30.23 in 10.0 mi Calm Calm - N/A   Clear
2:15 PM 80.8 °F 44.8 °F 28% 30.22 in 10.0 mi Calm Calm - N/A   Clear
2:35 PM 80.8 °F 40.1 °F 23% 30.21 in 10.0 mi Calm Calm - N/A   Clear
2:55 PM 80.8 °F 38.7 °F 22% 30.20 in 10.0 mi Calm Calm - N/A   Clear
3:15 PM 80.8 °F 35.4 °F 20% 30.20 in 10.0 mi Calm Calm - N/A   Clear
3:35 PM 81.1 °F 37.2 °F 21% 30.18 in 10.0 mi Calm Calm - N/A   Clear
3:55 PM 81.5 °F 42.6 °F 25% 30.18 in 10.0 mi Calm Calm - N/A   Clear
4:15 PM 82.2 °F 42.8 °F 25% 30.17 in 10.0 mi Calm Calm - N/A   Clear
4:35 PM 81.5 °F 38.7 °F 22% 30.16 in 10.0 mi Calm Calm - N/A   Clear
4:55 PM 83.3 °F 39.2 °F 21% 30.16 in 10.0 mi West 3.5 mph - N/A   Clear
5:15 PM 83.1 °F 40.8 °F 22% 30.15 in 10.0 mi WSW 4.6 mph - N/A   Clear
5:35 PM 82.6 °F 41.2 °F 23% 30.15 in 10.0 mi SW 4.6 mph - N/A   Clear
5:55 PM 81.5 °F 38.1 °F 21% 30.15 in 10.0 mi WSW 4.6 mph - N/A   Clear
6:15 PM 80.8 °F 35.4 °F 20% 30.14 in 10.0 mi Calm Calm - N/A   Clear
6:35 PM 80.8 °F 38.8 °F 22% 30.14 in 10.0 mi Calm Calm - N/A   Clear
6:55 PM 80.8 °F 46.2 °F 30% 30.14 in 10.0 mi Calm Calm - N/A   Clear
7:15 PM 77.0 °F 59.0 °F 54% 30.13 in 10.0 mi Calm Calm - N/A   Clear
7:35 PM 73.0 °F 58.8 °F 61% 30.14 in 10.0 mi Calm Calm - N/A   Clear
7:55 PM 73.0 °F 59.4 °F 62% 30.14 in 10.0 mi Calm Calm - N/A   Clear
8:15 PM 70.7 °F 59.9 °F 69% 30.14 in 10.0 mi Calm Calm - N/A   Clear
8:35 PM 68.0 °F 59.0 °F 73% 30.14 in 10.0 mi Calm Calm - N/A   Clear
8:55 PM 68.0 °F 59.7 °F 75% 30.14 in 10.0 mi Calm Calm - N/A   Clear
9:15 PM 67.5 °F 60.1 °F 77% 30.14 in 10.0 mi Calm Calm - N/A   Clear
9:35 PM 65.8 °F 59.4 °F 80% 30.14 in 10.0 mi Calm Calm - N/A   Clear
9:55 PM 65.7 °F 60.1 °F 82% 30.14 in 10.0 mi Calm Calm - N/A   Clear
10:15 PM 65.8 °F 60.4 °F 83% 30.14 in 10.0 mi Calm Calm - N/A   Clear
10:35 PM 65.5 °F 59.7 °F 82% 30.14 in 10.0 mi Calm Calm - N/A   Clear
10:55 PM 65.5 °F 60.1 °F 83% 30.14 in 10.0 mi Calm Calm - N/A   Clear
11:15 PM 65.5 °F 60.1 °F 83% 30.13 in 10.0 mi Calm Calm - N/A   Clear
11:35 PM 65.5 °F 60.1 °F 83% 30.13 in 10.0 mi Calm Calm - N/A   Clear
11:55 PM 64.0 °F 58.5 °F 82% 30.13 in 10.0 mi Calm Calm - N/A   Clear